Location: Bonny Doon Airfield
(37.0704°N, 122.1252°W)
Time: 14:32:14
(UTC-07:00)

nSIGHT-1 - Visible Passes

Search period start: 22 May 2018 00:00
Search period end: 01 June 2018 00:00
Orbit: 380 x 388 km, 51.6° (Epoch: 22 May)

Date Brightness Start Highest point End Pass type
(mag) Time Alt. Az. Time Alt. Az. Time Alt. Az.
22 May ? 21:01:49 10° WSW 21:04:43 34° NW 21:07:37 10° NNE visible
23 May ? 21:40:52 10° NW 21:42:22 13° NNW 21:43:52 10° N visible
28 May ? 00:12:07 10° NNW 00:12:22 11° NNW 00:12:22 11° NNW visible
28 May ? 23:14:10 10° N 23:15:16 11° NNE 23:15:30 11° NNE visible
29 May ? 23:50:08 10° NNW 23:50:51 15° NNW 23:50:51 15° NNW visible
30 May ? 22:51:48 10° NNW 22:53:51 16° NNE 22:54:01 16° NNE visible
31 May ? 21:54:15 10° NNE 21:54:40 10° NNE 21:55:05 10° NNE visible
31 May ? 23:28:14 10° NW 23:29:25 20° NNW 23:29:25 20° NNW visible
